Regional Weather Roundup
Issued by NWS

Home | Current Version | Previous Version | Graphics & Text | Print | Product List | Glossary On
Versions: 1 2 3 4 5 6 7 8 9 10 11 12 13 14 15 16 17 18 19 20 21 22 23 24 25 26 27 28 29 30 31 32 33 34 35 36 37 38 39 40 41 42 43 44 45 46 47 48 49 50
000
ASUS43 KIND 190409
RWRIN

WEATHER ROUNDUP FOR INDIANA
NATIONAL WEATHER SERVICE INDIANAPOLIS IN
1100 PM EST THU JAN 18 2018

NOTE: "FAIR" INDICATES FEW OR NO CLOUDS BELOW 12,000 FEET WITH NO
SIGNIFICANT WEATHER AND/OR OBSTRUCTIONS TO VISIBILITY.

* - STATION DOES NOT REPORT WEATHER SUCH AS PRECIPITATION OR FOG.

+ - STATION NOT QUALITY CONTROLLED BY THE NATIONAL WEATHER SERVICE.
    USE DATA WITH CAUTION...ESPECIALLY DEWPOINT AND RELATIVE
    HUMIDITY OBSERVATIONS.

INZ001>003-010>013-019-020-190500-
NORTHWEST INDIANA

CITY           SKY/WX    TMP DP  RH WIND       PRES   REMARKS
GARY /AIRPORT/ CLEAR     28  19  69 W8        30.03R WCI  20
KNOX *+        FAIR      25  18  74 SW14      30.05S WCI  13
LA PORTE +     FAIR      24  17  74 SW14G21   30.03S WCI  12
MICHIGAN CITY+ FAIR      27  19  74 SW13      30.03R WCI  16
MONTICELLO +   FAIR      24  14  64 SW13G21   30.07S WCI  13
RENSSELAER +   FAIR      27  16  63 SW17      30.06F WCI  14
VALPARAISO     FAIR      26  17  68 SW12      30.04R WCI  16

$$

LMZ046-743>745-190500-
SOUTHERN LAKE MICHIGAN

STATION/POSITION TIME  TEMP    WIND        PRES    WAVE
                       AIR SEA DIR/SP/G            HT
                 (UTC) (F)     (DEG/KT/KT) (MB)    (FT)
BURNS HARBOR     0400   28     200/ 19     1016.9
MICHIGAN CITY    0340   29     180/ 16/ 23   N/A

$$

INZ004-005-014>016-021>024-190500-
NORTH CENTRAL INDIANA

CITY           SKY/WX    TMP DP  RH WIND       PRES   REMARKS
GOSHEN         FAIR      24  15  68 SW17G25   30.03F WCI  11
LOGANSPORT +   FAIR      23  14  68 SW13      30.10S WCI  11
PERU/GRISSOM   FAIR      24  15  68 SW16      30.07F WCI  11
ROCHESTER +    FAIR      27  18  69 SW12G17   30.07S WCI  16
SOUTH BEND     FAIR      24  16  71 SW14      30.03R WCI  12
WARSAW +       FAIR      25  16  68 SW8       30.05F WCI  16

$$

INZ006>009-017-018-025>027-190500-
NORTHEAST INDIANA

CITY           SKY/WX    TMP DP  RH WIND       PRES   REMARKS
AUBURN +       FAIR      27  14  59 SW10G16   30.05S WCI  17
FORT WAYNE     FAIR      25  15  66 SW17      30.07F WCI  12
HUNTINGTON +   FAIR      24  12  60 SW12G20   30.08S WCI  13
KENDALLVILLE + FAIR      24  15  68 SW15      30.03S WCI  12

$$

INZ028-029-035-036-043>045-051>053-190500-
WEST CENTRAL INDIANA

CITY           SKY/WX    TMP DP  RH WIND       PRES   REMARKS
CRAWFORDSVL +  FAIR      22  13  68 MISG        N/A
GREENCASTLE +  FAIR      25  10  54 S9        30.16F WCI  15
LAFAYETTE      FAIR      24  14  65 SW12G18   30.11F WCI  13
TERRE HAUTE    FAIR      24  11  57 S9        30.19S WCI  14

$$

INZ030>032-037>040-046>048-054>057-064-065-190500-
CENTRAL INDIANA

CITY           SKY/WX    TMP DP  RH WIND       PRES   REMARKS
FRANKFORT +    FAIR      26  16  64 SW15G23   30.11F WCI  14
GREENWOOD *+   FAIR      25  12  58 SW9       30.17F WCI  15
INDIANAPOLIS   FAIR      24  11  57 SW10      30.15F WCI  14
-EAGLE CREEK   FAIR      25  11  55 SW13G23   30.14F WCI  14
MARION +       FAIR      24  14  66 SW16      30.10F WCI  11
MT COMFORT *+  FAIR      23  14  68 S10       30.15F WCI  12
SHELBYVILLE    FAIR      22  10  60 S14       30.17F WCI   9
ZIONSVILLE +   FAIR      24  12  60 SW16G24   30.12F WCI  10

$$

INZ033-034-041-042-049-050-058-059-190500-
EAST CENTRAL INDIANA

CITY           SKY/WX    TMP DP  RH WIND       PRES   REMARKS
MUNCIE         FAIR      26  11  52 SW14      30.11F WCI  14
RICHMOND +     FAIR      21  12  68 SW13      30.15F WCI   9

$$

INZ060-061-067>069-081>083-085>088-190500-
SOUTHWEST INDIANA

CITY           SKY/WX    TMP DP  RH WIND       PRES   REMARKS
EVANSVILLE     FAIR      23  13  65 SW8       30.27F WCI  14
HUNTINGBURG +  FAIR      22  12  65 S10       30.26F WCI  11
WASHINGTON +   FAIR      26  10  51 SW9       30.24R WCI  16

$$

INZ062-063-066-070>080-084-089>092-190500-
SOUTH CENTRAL AND SOUTHEAST INDIANA

CITY           SKY/WX    TMP DP  RH WIND       PRES   REMARKS
BATESVILLE *+    N/A    N/A N/A N/A MISG        N/A
BEDFORD +      FAIR      25  10  54 SW9       30.22F WCI  15
BLOOMINGTON    FAIR      26  10  50 SW14      30.19F WCI  14
FRENCH LICK *+ FAIR      27   9  46 SW8       30.24S WCI  18
MADISON *+     FAIR      23  14  68 S8        30.26F WCI  14
NORTH VERNON + FAIR      21  10  63 S8        30.23S WCI  12
SEYMOUR +      FAIR      23  10  58 S6        30.24F WCI  16

$$




USA.gov is the U.S. government's official web portal to all federal, state and local government web resources and services.